User: anonymous   Login
Location: Unspecified
(0.0000°N, 0.0000°E)
Time: 19:55:08
(UTC+00:00)
Language:

TOPSAT - Orbit

View from above orbital plane
View from above orbital plane
View from above satellite
View from above satellite

Ground track
Ground track

The orbit data is extracted from the following two-line orbital elements,

1 28891U 05043B   19341.53761636  .00000152  00000-0  39822-4 0  9991
2 28891  98.0109 111.6874 0016709 189.4101 170.6786 14.61401117752287
Epoch (UTC): 07 December 2019 12:54:10
Eccentricity: 0.0016709
inclination: 98.0109°
perigee height: 677 km
apogee height: 700 km
right ascension of ascending node: 111.6874°
argument of perigee: 189.4101°
revolutions per day: 14.61401117
mean anomaly at epoch: 170.6786°
orbit number at epoch: 75228

The dashed part of the orbit path shows where the satellite is in the earth's shadow,  

DLR